Montana Department of Transportation

Main Content

Accidents and Incidents Report

Hourly Weather Roundup

ASUS45 KTFX 292004
RWRMT 
MONTANA HOURLY WEATHER ROUNDUP
NATIONAL WEATHER SERVICE GREAT FALLS MT
204 PM MDT TUE JUL 29 2014

NOTE: "FAIR" INDICATES FEW OR NO CLOUDS BELOW 12000 FEET WITH NO
SIGNIFICANT WEATHER AND/OR OBSTRUCTIONS TO VISIBILITY.

* THESE STATIONS ARE NOT UNDER NWS QUALITY CONTROL. THEY DO NOT
   REPORT WEATHER SUCH AS PRECIPITATION OR FOG.

MTZ001.007-043-292100-
WEST OF THE DIVIDE
CITY           SKY/WX    TMP DP  RH WIND       PRES   REMARKS
KALISPELL      SUNNY     88  52  29 VRB3      30.12F 
MISSOULA       SUNNY     93  41  16 N10       30.12F 
BUTTE          PTSUNNY   79  39  24 VRB6G18   30.28R 
MULLAN PASS    PTSUNNY   79  36  21 CALM      30.34F 
* LINCOLN      N/A       86  45  24 N3G9       N/A   
* LOOKOUT PASS N/A       86  40  20 S4G9       N/A   
* POLSON       N/A       92  53  27 S3G8       N/A   
* RONAN APT    SUNNY     84  50  31 N/A        N/A   
* SEELEY LAKE  N/A       89  35  15 SW7G14     N/A   
* THOMP F APT  SUNNY     76  43  31 E8G15      N/A   
* YAAK HILL    N/A       93  51  24 SW2        N/A   
--------------------------------

MTZ008-052.055-292100-
SOUTHWEST MONTANA
CITY           SKY/WX    TMP DP  RH WIND       PRES   REMARKS
BOZEMAN        PTCLDY    88  45  22 VRB3      30.20F 
DILLON         PTCLDY    84  46  26 NW6       30.23F 
W YELLOWSTONE  CLOUDY    72  46  40 N6        30.35F 
* THREE FORKS  PTCLDY    86  54  33 N6         N/A   
* BOULDER HILL N/A       79  46  31 VRB7G17    N/A   
* MONIDA PASS  N/A       74  38  27 NE2G12     N/A   
* RAYNOLDS PAS N/A       70  49  47 S7         N/A   
* WHITEHALL    N/A       87  47  25 SE8        N/A   
* WISE RIVER   N/A       82  39  22 E8G20      N/A   
--------------------------------

MTZ009.010-012-014-046-048-049-054-292100-
EAST SLOPES AND CENTRAL MONTANA
CITY           SKY/WX    TMP DP  RH WIND       PRES   REMARKS
CUT BANK       SUNNY     88  46  23 S6        30.20F 
GREAT FALLS    SUNNY     90  43  19 NE8       30.18F 
HELENA         PTCLDY    90  45  21 SE3       30.16F 
MALMSTROM AFB  SUNNY     88  45  22 NW10      30.18F 
* CONRAD       SUNNY     84  59  43 N/A        N/A   HI  84 
* EAST GLACIER N/A       80  47  31 SE7G13     N/A   
* MONARCH      N/A       81  45  28 NE18       N/A   
* ROGERS PASS  N/A       82  42  24 SE4G10     N/A   
* SAINT MARY   N/A       89  44  21 E6G11      N/A   
* SWEET GRASS  N/A       90  43  19 SE11G18    N/A   
--------------------------------

MTZ011-013-016-021-035-040-045-047-050-051-292100-
NORTH CENTRAL MONTANA
CITY           SKY/WX    TMP DP  RH WIND       PRES   REMARKS
HAVRE          SUNNY     93  46  20 VRB3      30.13F 
LEWISTOWN      SUNNY     88  45  22 E10G18    30.23F 
* CHESTER      N/A       87  44  22 SE8G14     N/A   
* DENTON       N/A       89  50  26 E6G14      N/A   
* GEYSER       N/A       85  48  28 E10G17     N/A   
* JUDITH GAP   N/A       80  51  36 SE4G16     N/A   
* LOMA         N/A       90  45  21 NE10G17    N/A   
--------------------------------

MTZ017.020-022.027-061-062-292100-
NORTHEAST MONTANA
CITY           SKY/WX    TMP DP  RH WIND       PRES   REMARKS
GLASGOW        SUNNY     90  43  19 NE13G18   30.17F 
GLENDIVE       SUNNY     86  45  24 N14       30.19S 
JORDAN         SUNNY     90  39  17 E10G17    30.17F 
SIDNEY         SUNNY     84  54  36 NE6       30.18S 
WOLF POINT     SUNNY     90  43  19 NE13G21   30.17F 
* BEAVER HILL  N/A       81  49  33 NE5        N/A   
* CIRCLE       N/A       86  47  26 N2G11      N/A   
* LINDSAY DVD  N/A       83  44  25 N10G16     N/A   
--------------------------------

MTZ028.042-056.058-292100-
SOUTHCENTRAL AND SOUTHEAST MONTANA
CITY           SKY/WX    TMP DP  RH WIND       PRES   REMARKS
BAKER          PTSUNNY   84  46  26 CALM      30.22F 
BILLINGS       PTCLDY    88  50  27 SE8       30.18F 
LIVINGSTON     PTCLDY    88  46  23 E14       30.22F 
MILES CITY     SUNNY     88  45  22 E5        30.18F 
* LAUREL APT   PTCLDY    84  50  31 N/A        N/A   
* ROUNDUP APT  SUNNY     86  43  22 NE8        N/A   
* ALZADA       N/A       80  51  36 E1G8       N/A   
* HYSHAM       N/A       86  45  24 E8G19      N/A   
* LAME DEER    N/A       77  51  40 E6         N/A   
* REED POINT   N/A       88  51  28 E11        N/A   
* ROSCOE HILL  N/A       79  46  31 N6G12      N/A   
--------------------------------

REGIONAL REPORTS...DAKOTAS
CITY           SKY/WX    TMP DP  RH WIND       PRES   REMARKS
WILLISTON      SUNNY     84  52  33 N9        30.17F 
DICKINSON      PTCLDY    81  52  37 S6        30.18F 
CROSBY         SUNNY     77  59  54 CALM      30.20S 
TIOGA          PTCLDY    77  57  50 N6        30.22S 
WATFORD CITY   SUNNY     81  54  39 N10       30.15F 
BISMARCK       CLOUDY    77  54  45 VRB5      30.18F 
GRAND FORKS    PTCLDY    75  55  50 N5        30.13F 
FARGO          PTCLDY    79  48  34 N12G17    30.13F 
BUFFALO SD     PTSUNNY   79  50  36 VRB3      30.16F 
RAPID CITY     CLOUDY    70  59  68 SE8       30.26F 
--------------------------------

REGIONAL REPORTS...WYOMING/IDAHO/WASHINGTON
CITY           SKY/WX    TMP DP  RH WIND       PRES   REMARKS
GILLETTE       CLOUDY    68  61  78 SW12      30.29F 
SHERIDAN       CLOUDY    84  45  26 SE8       30.23F 
YELLOWSTONE LA CLOUDY    61  46  58 CALM      30.47F 
SALMON         PTCLDY    88  46  23 N3        30.08F 
MULLAN PASS    PTSUNNY   79  36  21 CALM      30.34S 
SAND POINT     SUNNY     88  54  31 CALM      30.08F 
SPOKANE        SUNNY     95  43  17 VRB3      30.08F 

--------------------------------